Weather History for Ankeny, IA

Change the Weather History Date:

Wednesday, May 28, 2014

  Actual Average (KDSM) Record (KDSM)
Temperature  
Mean Temperature 68 °F 66 °F  
Max Temperature 80 °F 76 °F 92 °F (1895)
Min Temperature 57 °F 56 °F 32 °F (1947)
Degree Days  
Heating Degree Days 0 2  
Month to date heating degree days 140  
Since 1 July heating degree days 6179  
Cooling Degree Days 4 3  
Month to date cooling degree days 51  
Year to date cooling degree days 65  
Growing Degree Days 18 (Base 50)    
Moisture  
Dew Point 63 °F    
Average Humidity 80    
Maximum Humidity 100    
Minimum Humidity 57    
Precipitation  
Precipitation 0.00 in 0.15 in 2.34 in (1947)
Month to date precipitation 4.28  
Year to date precipitation 12.72  
Snow  
Snow 0.00 in 0.00 in T in (1947)
Month to date snowfall 0.0  
Since 1 July snowfall 35.3  
Snow Depth -    
Sea Level Pressure  
Sea Level Pressure 29.97 in    
Wind  
Wind Speed 4 mph (NNE)    
Max Wind Speed 12 mph    
Max Gust Speed 16 mph    
Visibility 8 miles    
Events Fog    
T = Trace of Precipitation, MM = Missing Value Source: NWS Daily Summary

Daily Weather History Graph

Daily Weather History Graph

Search for Another Location

Airport:

Trip Planner

Search our weather history database for the weather conditions in past years. The results will help you decide how hot, cold, wet, or windy it might be!

Date:

Astronomy

May. 28, 2014 Rise Set
Actual Time 5:44 AM CDT 8:39 PM CDT
Civil Twilight 5:11 AM CDT 9:12 PM CDT
Nautical Twilight 4:29 AM CDT 9:54 PM CDT
Astronomical Twilight 3:40 AM CDT 10:43 PM CDT
Moon 5:52 AM CDT (5/28) 8:37 PM CDT (5/28)
Length of Visible Light 16h 01m
Length of Day
14h 54m
Waning Crescent, 0% of the Moon is Illuminated
May 28
Waning Crescent
May 28
New
Jun 5
First Quarter
Jun 12
Full
Jun 19
Last Quarter

Hourly Weather History & Observations

Time (CDT) Temp. Heat Index Dew Point Humidity Pressure Visibility Wind Dir Wind Speed Gust Speed Precip Events Conditions
12:15 AM 64.4 °F - 62.6 °F 94% 29.94 in 10.0 mi Calm Calm - N/A   Clear
12:35 AM 64.4 °F - 62.6 °F 94% 29.94 in 10.0 mi Calm Calm - N/A   Clear
12:55 AM 64.4 °F - 62.6 °F 94% 29.94 in 10.0 mi Calm Calm - N/A   Clear
1:15 AM 62.6 °F - 60.8 °F 94% 29.93 in 10.0 mi Calm Calm - N/A   Clear
1:35 AM 62.6 °F - 60.8 °F 94% 29.93 in 10.0 mi Calm Calm - N/A   Clear
1:55 AM 62.6 °F - 60.8 °F 94% 29.93 in 10.0 mi Calm Calm - N/A   Clear
2:15 AM 62.6 °F - 62.6 °F 100% 29.93 in 10.0 mi South 3.5 mph - N/A   Clear
2:35 AM 62.6 °F - 60.8 °F 94% 29.93 in 7.0 mi Calm Calm - N/A   Clear
2:55 AM 60.8 °F - 60.8 °F 100% 29.93 in 9.0 mi Calm Calm - N/A   Clear
3:15 AM 60.8 °F - 60.8 °F 100% 29.92 in 2.0 mi Calm Calm - N/A   Clear
3:35 AM 60.8 °F - 60.8 °F 100% 29.92 in 1.8 mi Calm Calm - N/A   Clear
4:15 AM 60.8 °F - 60.8 °F 100% 29.93 in 0.8 mi Calm Calm - N/A   Mist
4:35 AM 59.0 °F - 59.0 °F 100% 29.93 in 0.2 mi Calm Calm - N/A Fog Fog
4:55 AM 59.0 °F - 59.0 °F 100% 29.93 in 0.2 mi Calm Calm - N/A Fog Fog
5:15 AM 57.2 °F - 57.2 °F 100% 29.93 in 0.2 mi Calm Calm - N/A Fog Fog
5:35 AM 59.0 °F - 59.0 °F 100% 29.94 in 2.0 mi Calm Calm - N/A   Clear
5:55 AM 59.0 °F - 59.0 °F 100% 29.94 in 0.2 mi Calm Calm - N/A Fog Fog
6:15 AM 60.8 °F - 60.8 °F 100% 29.95 in 0.2 mi North 5.8 mph - N/A Fog Fog
6:35 AM 64.4 °F - 64.4 °F 100% 29.96 in 1.2 mi North 6.9 mph - N/A   Mostly Cloudy
6:55 AM 64.4 °F - 64.4 °F 100% 29.96 in 1.8 mi North 6.9 mph - N/A   Mostly Cloudy
7:15 AM 64.4 °F - 64.4 °F 100% 29.97 in 2.5 mi North 6.9 mph - N/A   Partly Cloudy
7:35 AM 66.2 °F - 66.2 °F 100% 29.97 in 2.5 mi North 6.9 mph 12.7 mph N/A   Mostly Cloudy
7:55 AM 66.2 °F - 66.2 °F 100% 29.98 in 4.0 mi North 6.9 mph 13.8 mph N/A   Overcast
8:15 AM 68.0 °F - 66.2 °F 94% 29.98 in 6.0 mi North 6.9 mph - N/A   Overcast
8:55 AM 71.6 °F - 66.2 °F 83% 29.99 in 8.0 mi North 9.2 mph - N/A   Scattered Clouds
9:15 AM 69.8 °F - 64.4 °F 83% 29.99 in 7.0 mi North 9.2 mph - N/A   Mostly Cloudy
9:35 AM 69.8 °F - 64.4 °F 83% 30.00 in 8.0 mi North 11.5 mph - N/A   Overcast
9:55 AM 69.8 °F - 64.4 °F 83% 30.00 in 8.0 mi North 8.1 mph - N/A   Overcast
10:15 AM 69.8 °F - 64.4 °F 83% 30.00 in 10.0 mi North 8.1 mph - N/A   Overcast
10:35 AM 71.6 °F - 64.4 °F 78% 30.00 in 10.0 mi North 9.2 mph - N/A   Overcast
10:55 AM 71.6 °F - 64.4 °F 78% 30.00 in 10.0 mi North 6.9 mph - N/A   Overcast
11:15 AM 71.6 °F - 64.4 °F 78% 30.01 in 10.0 mi North 8.1 mph - N/A   Overcast
11:35 AM 73.4 °F - 66.2 °F 78% 30.01 in 10.0 mi NNW 10.4 mph - N/A   Overcast
11:55 AM 71.6 °F - 66.2 °F 83% 30.01 in 10.0 mi NNW 10.4 mph - N/A   Overcast
12:15 PM 73.4 °F - 66.2 °F 78% 30.01 in 10.0 mi North 10.4 mph - N/A   Overcast
12:35 PM 73.4 °F - 66.2 °F 78% 30.00 in 10.0 mi North 10.4 mph - N/A   Overcast
1:15 PM 75.2 °F - 66.2 °F 73% 30.00 in 10.0 mi North 8.1 mph 15.0 mph N/A   Overcast
1:35 PM 75.2 °F - 66.2 °F 73% 30.00 in 10.0 mi North 8.1 mph - N/A   Overcast
1:55 PM 77.0 °F - 68.0 °F 74% 29.99 in 10.0 mi North 8.1 mph 13.8 mph N/A   Overcast
2:15 PM 77.0 °F - 66.2 °F 69% 29.99 in 10.0 mi NNE 6.9 mph - N/A   Overcast
2:35 PM 78.8 °F - 64.4 °F 61% 29.98 in 10.0 mi North 5.8 mph 12.7 mph N/A   Overcast
2:55 PM 78.8 °F - 66.2 °F 65% 29.98 in 10.0 mi NNW 10.4 mph - N/A   Mostly Cloudy
3:15 PM 78.8 °F - 64.4 °F 61% 29.98 in 10.0 mi NNW 8.1 mph - N/A   Overcast
3:35 PM 78.8 °F - 66.2 °F 65% 29.98 in 10.0 mi NNW 9.2 mph - N/A   Scattered Clouds
3:55 PM 78.8 °F - 64.4 °F 61% 29.97 in 10.0 mi NNE 5.8 mph 12.7 mph N/A   Scattered Clouds
4:15 PM 78.8 °F - 66.2 °F 65% 29.97 in 10.0 mi NE 9.2 mph 15.0 mph N/A   Mostly Cloudy
4:35 PM 78.8 °F - 66.2 °F 65% 29.96 in 10.0 mi NNE 9.2 mph - N/A   Scattered Clouds
4:55 PM 78.8 °F - 66.2 °F 65% 29.96 in 10.0 mi NNE 10.4 mph - N/A   Scattered Clouds
5:15 PM 80.6 °F 82.3 °F 64.4 °F 58% 29.96 in 10.0 mi NNE 11.5 mph - N/A   Partly Cloudy
5:35 PM 78.8 °F - 64.4 °F 61% 29.95 in 10.0 mi NNE 9.2 mph 16.1 mph N/A   Partly Cloudy
5:55 PM 78.8 °F - 62.6 °F 57% 29.95 in 10.0 mi North 8.1 mph 15.0 mph N/A   Clear
6:15 PM 78.8 °F - 64.4 °F 61% 29.95 in 10.0 mi NNE 8.1 mph 16.1 mph N/A   Clear
6:35 PM 78.8 °F - 62.6 °F 57% 29.95 in 10.0 mi NNE 10.4 mph - N/A   Clear
6:55 PM 78.8 °F - 64.4 °F 61% 29.96 in 10.0 mi ENE 10.4 mph - N/A   Mostly Cloudy
7:15 PM 78.8 °F - 62.6 °F 57% 29.96 in 10.0 mi NE 10.4 mph - N/A   Scattered Clouds
7:35 PM 77.0 °F - 62.6 °F 61% 29.97 in 10.0 mi NE 10.4 mph - N/A   Scattered Clouds
7:55 PM 77.0 °F - 62.6 °F 61% 29.97 in 10.0 mi NNE 10.4 mph - N/A   Partly Cloudy
8:15 PM 75.2 °F - 62.6 °F 65% 29.97 in 10.0 mi NE 8.1 mph - N/A   Partly Cloudy
8:35 PM 73.4 °F - 62.6 °F 69% 29.97 in 10.0 mi NE 5.8 mph - N/A   Partly Cloudy
8:55 PM 71.6 °F - 62.6 °F 73% 29.98 in 10.0 mi NE 5.8 mph - N/A   Clear
9:35 PM 71.6 °F - 62.6 °F 73% 29.99 in 10.0 mi NE 5.8 mph - N/A   Partly Cloudy
9:55 PM 71.6 °F - 62.6 °F 73% 30.00 in 10.0 mi NE 6.9 mph - N/A   Mostly Cloudy
10:15 PM 71.6 °F - 62.6 °F 73% 30.01 in 10.0 mi NE 5.8 mph - N/A   Overcast
10:55 PM 71.6 °F - 60.8 °F 69% 30.01 in 10.0 mi NE 10.4 mph - N/A   Mostly Cloudy
11:15 PM 71.6 °F - 60.8 °F 69% 30.01 in 10.0 mi NE 9.2 mph - N/A   Partly Cloudy
11:35 PM 69.8 °F - 60.8 °F 73% 30.01 in 10.0 mi ENE 9.2 mph - N/A   Mostly Cloudy
11:55 PM 69.8 °F - 60.8 °F 73% 30.01 in 10.0 mi NE 6.9 mph - N/A   Mostly Cloudy